Location: Be?i?
(36.9044°N, 30.1006°E)
Time: 12:33:31
(UTC+00:00)

Cosmos 1371 Rocket - Pass Details

Date: 05 August 2024
Orbit: 752 x 786 km, 74.0° (Epoch: 09 September)

Event Time Altitude Azimuth Distance (km) Brightness Sun altitude
Rises 17:53:29 0° 183° (S) 3,259 7.0 -10.1°
Reaches altitude 10° 17:55:55 10° 178° (S) 2,332 6.2 -10.5°
Maximum altitude 18:01:02 51° 103° (ESE) 976 4.2 -11.4°
Drops below altitude 10° 18:06:09 10° 29° (NNE) 2,331 6.6 -12.3°
Sets 18:08:35 0° 24° (NNE) 3,257 7.4 -12.7°
